Flag for Brazil Weather past 2 weeks in São Paulo, São Paulo, Brazil

Now
66 °F

Partly sunny.


Feels Like: 66 °F
Forecast: 58 / 69 °F
Wind: 16 mph from Southeast

Location: Sao Paulo Airport

Current Time: Oct 21, 2014 at 2:49:29 PM

Latest Report: Oct 21, 2014 at 2:00 PM


Visibility: N/A

Pressure: 30.21 "Hg

Humidity: 56%

Dew point: 50 °F

Location of São PauloLocation

Historic Weather in São Paulo — Graph

°F

São Paulo temperature yesterday

Maximum temperature yesterday: 73 °F (at 2:00 PM)
Minimum temperature yesterday: 64 °F (at 8:00 PM)
Average temperature yesterday: 69 °F

Past Weeks' High & Low Weather Summary

 TemperatureHumidityPressure
High97 °F (Oct 13, 2:00 PM)88% (Oct 17, 2:00 AM)30.24 "Hg (Oct 17, 2:00 AM)
Low57 °F (Oct 6, 10:00 PM)13% (Oct 12, 3:00 PM)29.89 "Hg (Oct 19, 4:00 PM)
Average73 °F56%30.09 "Hg
* Reported Oct 6 12:00 Noon — Oct 21 1:00 PM, São Paulo, Weather by CustomWeather, © 2014

Note: Actual official high and low records may vary slightly from our data, if they occured in-between our weather recording intervals... More about our weather records

Advertising

São Paulo weather history for previous 24 hours

 ConditionsComfort  
Time TempWeatherWind HumidityBarometerVisibility
1:00 PM
Oct 21
66 °FPartly sunny.12 mph60%30.24 "HgN/A
12:00 PM64 °FPartly sunny.14 mph64%30.24 "HgN/A
11:00 AM61 °FMostly cloudy.13 mph77%30.24 "HgN/A
10:00 AM61 °FMostly cloudy.12 mph77%30.24 "HgN/A
9:00 AM61 °FLight rain. Mostly cloudy.13 mph83%30.21 "HgN/A
8:00 AM61 °FMostly cloudy.14 mph77%30.18 "HgN/A
7:00 AM61 °FMostly cloudy.16 mph77%30.18 "HgN/A
6:00 AM61 °FMostly cloudy.16 mph77%30.15 "HgN/A
5:00 AM61 °FOvercast.14 mph83%30.15 "Hg5 mi
4:00 AM61 °FDrizzle. Mostly cloudy.12 mph88%30.12 "Hg4 mi
3:00 AM61 °FFog.8 mph88%30.12 "Hg2 mi
2:00 AM61 °FMostly cloudy.10 mph83%30.15 "HgN/A
1:00 AM61 °FMostly cloudy.12 mph83%30.15 "HgN/A
12:00 AM61 °FOvercast.12 mph77%30.18 "HgN/A
8:00 PM
Oct 20
64 °FFog.16 mph83%30.12 "Hg2 mi
6:00 PM66 °FLow clouds.13 mph78%30.09 "HgN/A
5:00 PM68 °FPartly sunny.15 mph73%30.09 "HgN/A
4:00 PM70 °FBroken clouds.14 mph69%30.09 "HgN/A
3:00 PM72 °FBroken clouds.14 mph69%30.09 "HgN/A
2:00 PM73 °FPartly sunny.9 mph65%30.09 "HgN/A
Weather by CustomWeather, © 2014

See weather overviewHow to use our weather pages